Regional Weather Roundup
Issued by NWS

Home | Current Version | Previous Version | Graphics & Text | Print | Product List | Glossary On
Versions: 1 2 3 4 5 6 7 8 9 10 11 12 13 14 15 16 17 18 19 20 21 22 23 24 25 26 27 28 29 30 31 32 33 34 35 36 37 38 39 40 41 42 43 44 45 46 47 48 49 50
742
ASUS44 KJAN 010610
RWRMS

MISSISSIPPI HOURLY WEATHER ROUNDUP
NATIONAL WEATHER SERVICE JACKSON MS
100 AM CDT FRI AUG 01 2014

NOTE: "FAIR: INDICATES FEW OR NO CLOUDS BELOW 12,000 FEET WITH NO
SIGNIFICANT WEATHER AND/OR OBSTRUCTIONS TO VISIBILITY.

MSZ001>002-007>008-010>013-018>021-025>028-034>036-010700-
NORTHWEST MISSISSIPPI

CITY           SKY/WX    TMP DP  RH WIND       PRES   REMARKS
CLARKSDALE     MOCLDY    68  68 100 N6        30.05S
CLEVELAND      FAIR      71  69  96 CALM      30.03S
GREENWOOD      LGT RAIN  70  68  93 NE3       30.03F FOG
6HR MIN TEMP:  68; 6HR MAX TEMP:  75; 6HR PCP:  0.02;

GREENVILLE     PTCLDY    71  68  90 E3        30.02F
6HR MIN TEMP:  71; 6HR MAX TEMP:  74; 6HR PCP: TRACE;

GRENADA        FAIR      70  68  94 CALM      30.04F
OLIVE BRANCH   CLEAR     70  70 100 CALM      30.06F
OXFORD         FAIR      70  66  88 CALM      30.06F
TUNICA         CLOUDY    70  66  88 N3        30.06S
$$

MSZ003>006-009-014>017-022>024-029>033-037>039-010700-
NORTHEAST MISSISSIPPI

CITY           SKY/WX    TMP DP  RH WIND       PRES   REMARKS
BELMONT        FAIR      66  65  96 CALM      30.06S
COLUMBUS AFB   MOCLDY    67  66  97 CALM      30.04S
6HR MIN TEMP:  66; 6HR MAX TEMP:  79; 6HR PCP: TRACE;

CORINTH        FAIR      68  64  88 CALM      30.06S FOG
GOLDN TRIANGLE MOCLDY    70  63  78 CALM      30.04F
STARKVILLE     FAIR      66  64  94 CALM      30.04S
TUPELO         MOCLDY    70  66  87 CALM      30.04F
6HR MIN TEMP:  70; 6HR MAX TEMP:  79;

$$

MSZ040-058-010700-
CENTRAL MISSISSIPPI

CITY           SKY/WX    TMP DP  RH WIND       PRES   REMARKS
JACKSON INTL   CLOUDY    73  67  81 CALM      30.02F
6HR MIN TEMP:  72; 6HR MAX TEMP:  80;

JACKSON HAWKNS CLOUDY    75  65  70 CALM      30.03F
6HR MIN TEMP:  73; 6HR MAX TEMP:  80;

MERIDIAN KEY   CLOUDY    68  63  84 CALM      30.02F
6HR MIN TEMP:  66; 6HR MAX TEMP:  80; 6HR PCP:  0.01;

MERIDIAN NAS   MOCLDY    67  63  87 W3        30.03F
6HR MIN TEMP:  65; 6HR MAX TEMP:  80;

RAYMOND        FAIR      72  66  83 CALM      30.03S HAZE
VICKSBURG      CLOUDY    74  67  78 E3        30.01F
6HR MIN TEMP:  72; 6HR MAX TEMP:  80;

$$

MSZ059>079-010700-
SOUTH MISSISSIPPI

CITY           SKY/WX    TMP DP  RH WIND       PRES   REMARKS
BROOKHAVEN     FAIR      70  66  88 CALM      30.04F
COLUMBIA       FAIR      70  68  94 CALM      30.00F FOG
HATTIESBURG    CLOUDY    72  68  87 CALM      30.02F
6HR MIN TEMP:  70; 6HR MAX TEMP:  80;

MCCOMB         CLOUDY    73  64  73 E3        30.01F
6HR MIN TEMP:  73; 6HR MAX TEMP:  78;

NATCHEZ        CLOUDY    73  64  73 E6        30.01F
6HR MIN TEMP:  73; 6HR MAX TEMP:  75;

PINE BELT      MOCLDY    70  66  88 CALM      30.03F
6HR MIN TEMP:  68; 6HR MAX TEMP:  79;

$$

MSZ080>082-010700-
COASTAL MISSISSIPPI

CITY           SKY/WX    TMP DP  RH WIND       PRES   REMARKS
BILOXI         CLOUDY    76  67  74 NE5       29.99F
6HR MIN TEMP:  76; 6HR MAX TEMP:  82;

PASCAGOULA     MOCLDY    68  67  96 CALM      30.00F
6HR MIN TEMP:  68; 6HR MAX TEMP:  81;

GULFPORT       CLOUDY    79  68  69 CALM      29.99F
6HR MIN TEMP:  77; 6HR MAX TEMP:  85;

$$



USA.gov is the U.S. government's official web portal to all federal, state and local government web resources and services.